Location: Poughquag
(41.6090°N, 73.6820°W)
Time: 08:13:22
(UTC-05:00)

N. Korean satellite - Visible Passes

Search period start: 05 February 2023 00:00
Search period end: 15 February 2023 00:00
Orbit: 407 x 442 km, 97.3° (Epoch: 04 February)

Date Brightness Start Highest point End Pass type
(mag) Time Alt. Az. Time Alt. Az. Time Alt. Az.
05 Feb 6.6 05:12:31 10° NNE 05:15:45 67° E 05:18:59 10° S visible
06 Feb 9.3 04:30:37 10° NE 04:32:49 17° E 04:34:59 10° SE visible
06 Feb 7.5 06:02:23 10° NNW 06:05:01 23° WNW 06:07:39 10° SW visible
07 Feb 6.2 05:19:01 10° NNE 05:22:17 85° ESE 05:25:34 10° S visible
08 Feb 9.0 04:36:44 10° NE 04:39:15 20° E 04:41:44 10° SE visible
08 Feb 7.7 06:08:57 10° NNW 06:11:22 19° WNW 06:13:47 10° WSW visible
09 Feb 6.1 05:25:16 10° N 05:28:32 78° WNW 05:31:49 10° SSW visible
10 Feb 8.7 04:42:40 10° NE 04:45:24 24° E 04:48:08 10° SSE visible
10 Feb 7.9 06:15:17 10° NNW 06:17:26 17° WNW 06:19:36 10° WSW visible
11 Feb 6.2 05:31:16 10° N 05:34:31 63° WNW 05:37:46 10° SSW visible
12 Feb 8.4 04:48:22 10° NE 04:51:16 28° E 04:54:10 10° SSE visible
12 Feb 8.1 06:21:24 10° NNW 06:23:14 14° WNW 06:25:04 10° WSW visible
13 Feb 6.4 05:37:00 10° N 05:40:12 51° WNW 05:43:25 10° SSW visible
14 Feb 8.0 04:53:49 10° NNE 04:56:51 34° E 04:59:53 10° SSE visible
